TimeCDT,TemperatureF,Dew PointF,Humidity,Sea Level PressureIn,VisibilityMPH,Wind Direction,Wind SpeedMPH,Gust SpeedMPH,PrecipitationIn,Events,Conditions,WindDirDegrees,DateUTC
1:55 AM,63.3,58.1,83,30.11,10.0,NE,5.8,-,N/A,,Mostly Cloudy,50,2012-05-14 06:55:00
2:55 AM,61.2,58.5,91,30.10,10.0,Calm,Calm,-,N/A,,Scattered Clouds,0,2012-05-14 07:55:00
3:55 AM,64.6,56.5,75,30.12,10.0,Calm,Calm,-,N/A,,Overcast,0,2012-05-14 08:55:00
4:55 AM,60.8,58.6,93,30.11,10.0,North,3.5,-,N/A,,Mostly Cloudy,10,2012-05-14 09:55:00
5:55 AM,61.5,57.7,87,30.12,10.0,Calm,Calm,-,N/A,,Overcast,0,2012-05-14 10:55:00
6:55 AM,61.3,59.7,94,30.14,10.0,Calm,Calm,-,N/A,,Scattered Clouds,0,2012-05-14 11:55:00
7:55 AM,62.1,59.0,90,30.15,10.0,NE,5.8,-,N/A,,Partly Cloudy,50,2012-05-14 12:55:00
8:55 AM,66.4,57.7,74,30.15,10.0,NNE,3.5,-,N/A,,Clear,30,2012-05-14 13:55:00
9:55 AM,70.9,56.5,60,30.15,10.0,ESE,6.9,-,N/A,,Partly Cloudy,110,2012-05-14 14:55:00
10:55 AM,73.0,55.4,54,30.16,10.0,East,4.6,-,N/A,,Mostly Cloudy,100,2012-05-14 15:55:00
10:56 AM,73.4,55.4,53,30.16,10.0,East,5.8,-,N/A,,Mostly Cloudy,90,2012-05-14 15:56:00
10:59 AM,73.4,55.4,53,30.16,10.0,Calm,Calm,-,N/A,,Mostly Cloudy,0,2012-05-14 15:59:00
11:02 AM,73.4,55.4,53,30.16,10.0,SE,6.9,-,N/A,,Mostly Cloudy,130,2012-05-14 16:02:00
11:18 AM,75.2,55.4,50,30.16,10.0,ENE,6.9,-,N/A,,Mostly Cloudy,70,2012-05-14 16:18:00
11:21 AM,75.2,55.4,50,30.16,10.0,Variable,3.5,-,N/A,,Mostly Cloudy,0,2012-05-14 16:21:00
11:27 AM,73.4,53.6,50,30.16,10.0,NNE,5.8,-,N/A,,Mostly Cloudy,30,2012-05-14 16:27:00
11:37 AM,73.4,55.4,53,30.16,10.0,SE,4.6,-,N/A,,Mostly Cloudy,130,2012-05-14 16:37:00
11:55 AM,73.6,54.5,51,30.15,10.0,NNE,6.9,-,N/A,,Mostly Cloudy,20,2012-05-14 16:55:00
11:58 AM,73.4,53.6,50,30.14,10.0,NE,11.5,-,N/A,,Mostly Cloudy,50,2012-05-14 16:58:00
12:01 PM,73.4,53.6,50,30.14,10.0,NE,10.4,-,N/A,,Mostly Cloudy,40,2012-05-14 17:01:00
12:15 PM,75.2,53.6,47,30.14,10.0,ENE,5.8,-,N/A,,Mostly Cloudy,70,2012-05-14 17:15:00
12:20 PM,75.2,53.6,47,30.13,10.0,East,9.2,-,N/A,,Mostly Cloudy,90,2012-05-14 17:20:00
12:55 PM,77.0,52.5,42,30.13,10.0,East,8.1,-,N/A,,Overcast,90,2012-05-14 17:55:00
1:55 PM,76.1,52.0,43,30.11,10.0,Variable,4.6,-,N/A,,Overcast,0,2012-05-14 18:55:00
2:55 PM,76.8,47.7,36,30.10,10.0,NE,8.1,-,N/A,,Mostly Cloudy,40,2012-05-14 19:55:00
3:55 PM,77.0,48.7,37,30.08,10.0,East,9.2,-,N/A,,Mostly Cloudy,100,2012-05-14 20:55:00
4:55 PM,79.3,45.9,31,30.06,10.0,Calm,Calm,-,N/A,,Clear,0,2012-05-14 21:55:00
5:55 PM,77.5,46.0,33,30.05,10.0,ENE,8.1,-,N/A,,Mostly Cloudy,70,2012-05-14 22:55:00
6:55 PM,78.3,44.1,30,30.04,10.0,Variable,3.5,-,N/A,,Clear,0,2012-05-14 23:55:00
7:55 PM,74.8,51.4,44,30.05,10.0,Calm,Calm,-,N/A,,Clear,0,2012-05-15 00:55:00
8:55 PM,70.9,55.2,58,30.06,10.0,North,3.5,-,N/A,,Partly Cloudy,350,2012-05-15 01:55:00
9:55 PM,67.8,56.1,66,30.08,10.0,Calm,Calm,-,N/A,,Clear,0,2012-05-15 02:55:00
10:55 PM,65.7,56.5,72,30.08,10.0,Calm,Calm,-,N/A,,Clear,0,2012-05-15 03:55:00
11:55 PM,63.5,56.7,78,30.08,10.0,Calm,Calm,-,N/A,,Clear,0,2012-05-15 04:55:00